Weather Roundup
Issued by NWS

Home | Current Version | Previous Version | Text Only | Print | Product List | Glossary On
Versions: 1 2 3 4 5 6 7 8 9 10 11 12 13 14 15 16 17 18 19 20 21 22 23 24 25 26 27 28 29 30 31 32 33 34 35 36 37 38 39 40 41 42 43 44 45 46 47 48 49 50
000
NZUS93 KARX 181110
HRRWXR

CURRENT HOURLY OBSERVATIONS ACROSS
MUCH OF THE UPPER MISSISSIPPI VALLEY
NATIONAL WEATHER SERVICE LA CROSSE WI
500 AM CST SAT NOV 18 2017


...SOUTHEAST MINNESOTA...


CITY           SKY/WX    TMP DP  RH WIND       PRES   REMARKS
ROCHESTER      CLOUDY    34  34 100 N15       29.65S FOG     WCI  24
ROCHESTER/MAYO CLOUDY    35  35 100 NW6       29.67S WCI  30
WINONA         CLOUDY    36  34  93 NW9       29.67S WCI  29
AUSTIN         CLOUDY    36  34  93 N9        29.67R FOG     WCI  29
ALBERT LEA     CLOUDY    34  34 100 N15       29.70R FOG     WCI  24
DODGE CENTER   CLOUDY    34  34 100 N15G21    29.66F FOG     WCI  24
PRESTON        CLOUDY    33  32  96 N13       29.65R FOG     WCI  24
OWATONNA       CLOUDY    36  34  93 NW13      29.71R FOG     WCI  27
FARIBAULT      CLOUDY    36  34  93 NW9       29.72R FOG     WCI  29
$$

...ELSEWHERE IN MINNESOTA...


CITY           SKY/WX    TMP DP  RH WIND       PRES   REMARKS
MINNEAPOLIS    CLOUDY    34  33  96 N10       29.73R WCI  26
INTNL FALLS    PTCLDY    13  10  88 W5        29.77R FOG     WCI   5
DULUTH         CLOUDY    27  25  92 NW8       29.71R WCI  19
RED WING       CLOUDY    36  32  87 N5        29.70R WCI  32
REDWOOD FALLS  MOCLDY    29  21  72 NW10      29.79R WCI  20
MANKATO        MOCLDY    34  30  86 NW12      29.74R WCI  25
WORTHINGTON    CLOUDY    29  23  78 N18       29.78R WCI  16
FAIRMONT       MOCLDY    31  29  92 N16       29.73S WCI  20
$$

...SOUTHWEST WISCONSIN...


CITY           SKY/WX    TMP DP  RH WIND       PRES   REMARKS
LA CROSSE      CLOUDY    38  35  89 N13       29.64R WCI  30
PRAIRIE DU CHI LGT RAIN  38  36  91 NW9       29.59R WCI  32
BOSCOBEL       LGT RAIN  39  36  89 N8        29.59R WCI  33
LONE ROCK      CLOUDY    38  36  92 VRB5      29.58S WCI  34
PLATTEVILLE    CLOUDY    38  38 100 N14       29.51F WCI  29
FORT MC COY    CLOUDY    34  33  96 N10       29.63R WCI  26
CAMP DOUGLAS   CLOUDY    35  35  99 N13       29.60R WCI  27
MAUSTON-NEW LI CLOUDY    36  35  96 N7        29.59R FOG     WCI  30
VIROQUA        CLOUDY    35  35 100 N9        29.59R WCI  28
WIS DELLS      LGT RAIN  35  35  98 N7        29.57R WCI  29
$$

...ELSEWHERE IN WISCONSIN...


CITY           SKY/WX    TMP DP  RH WIND       PRES   REMARKS
MILWAUKEE      MOCLDY    41  38  89 N6        29.55R
MADISON        CLOUDY    37  35  92 NE10      29.54F WCI  30
GREEN BAY      CLOUDY    36  35  96 N10       29.56F WCI  28
EAU CLAIRE     CLOUDY    35  33  92 N6        29.68R FOG     WCI  30
BLACK RVR FLS  CLOUDY    36  36 100 N7        29.63R FOG     WCI  30
MEDFORD        CLOUDY    32  32 100 N8        29.62R FOG     WCI  25
WAUSAU         CLOUDY    34  33  96 N8        29.59S WCI  27
WIS RAPIDS     CLOUDY    35  33  92 N9        29.61R WCI  28
MARSHFIELD     CLOUDY    34  31  88 N9        29.60R WCI  27
RICE LAKE      CLOUDY    34  32  93 NW7       29.71R FOG     WCI  28
$$

...NORTHEAST IOWA...


CITY           SKY/WX    TMP DP  RH WIND       PRES   REMARKS
WATERLOO       CLOUDY    37  35  92 N14       29.62R WCI  28
DUBUQUE        CLOUDY    38  36  92 NE6G16    29.55S WCI  33
DECORAH        CLOUDY    36  36 100 N12       29.61R WCI  27
MASON CITY     CLOUDY    36  34  92 N18       29.69R FOG     WCI  26
CHARLES CITY   CLOUDY    37  37 100 N14       29.64R WCI  29
OELWEIN        MIX PCPN  37  37 100 N16       29.60R WCI  28
$$

...ELSEWHERE IN IOWA...


CITY           SKY/WX    TMP DP  RH WIND       PRES   REMARKS
DES MOINES     LGT RAIN  40  38  93 N14G22    29.64R WCI  32
IOWA CITY      RAIN      42  39  89 N12       29.54F FOG
FORT DODGE     CLOUDY    37  35  92 N9G17     29.71R FOG     WCI  30
MARSHALLTOWN   RAIN      38  37  97 N14G22    29.62R FOG     WCI  30
CEDAR RAPIDS   LGT RAIN  40  38  93 N18       29.54S WCI  31
$$

...NORTHERN ILLINOIS...


CITY           SKY/WX    TMP DP  RH WIND       PRES   REMARKS
CHICAGO-OHARE  CLOUDY    46  42  86 N12       29.50S
CHICAGO-MIDWAY CLOUDY    47  47 100 N7        29.50S FOG
MOLINE         CLOUDY    44  40  85 N10       29.50S FOG
ROCKFORD       CLOUDY    40  38  93 NE10      29.55S WCI  33
PEORIA         LGT RAIN  50  50 100 N5        29.45S FOG
$$

NOTE: "FAIR" INDICATES FEW OR NO CLOUDS BELOW 12,000 FEET WITH NO
SIGNIFICANT WEATHER AND/OR OBSTRUCTIONS TO VISIBILITY. WIND
SPEEDS ARE IN MILES-PER-HOUR.




USA.gov is the U.S. government's official web portal to all federal, state and local government web resources and services.